STARLINK-30099, 56304

Orbit data source: Space-Track

STARLINK-30099, 56304 is a payload satellite owned by SpaceX/Seattle (US) in LEO that was launched on Wed, 19 Apr 2023 UTC via an FALCON 9 launch vehicle from the Air Force Eastern Test Range (AFETR). Payload-class satellites include a variety of spacecraft equipped with specific instruments for various scientific and technological missions. These include communications satellites like Starlink; space stations such as the ISS; scientific satellites like the Hubble; Earth observation satellites from companies like Planet Labs, Umbra, and HawkEye 360; GPS; miniature CubeSats for education and research; and military/defense satellites.

Loading next visibility...
Identifier
56304, 2023-056U
Orbit
LEO
Last TLE update
16 hours ago
Origin
Manufacturer
SpaceX/Seattle
Mission
Operational Commercial Communications
Bus & Motor
STARLINK V2M, Unknown motor
Mass
730 kg wet, ~700 kg dry
Launch date (UTC)
2023-04-19 (2 years ago)
Launch vehicle
FALCON 9
Launch site
Air Force Eastern Test Range (AFETR)
Object type
Payload
Rocket body
Debris
Shape & HBR
Box + 2 Pan, 29 m
Radar Cross Section
33.884 m², Large (>1 m²)

Expand to show TLE details & history

TLE from 16 hours ago
0 STARLINK-30099
1 56304U 23056U   25127.21502388  .00000144  00000-0  25770-4 0  9994
2 56304  43.0047  75.3636 0001222 272.9601  87.1101 15.02533160113326
Epoch: 2025-05-07T05:09Z
Definitive object data (Epoch: 2025-05-07T05:09:38.063Z)
Latitude
-0.00004°
Longitude
132.65188°
Altitude
558.824 km
Speed
7.584 km/s
True Right ascension
05h 01m 27s
True Declination
0° 00' 00"
Sunlit
Object was in daylight at TLE epoch
Visualization TLE readout
Latitude
42.92296°
Longitude
-133.66528°
Altitude
563.053 km
Speed
7.585 km/s
Apparent Right ascension
14h 21m 09s
Apparent Declination
5° 21' 31"
Sunlit
Object is in daylight
Visualization observer readout
Local Sidereal Time
05:35:41
Azimuth
56.54° ENE
Elevation
-26.406°
Doppler factor
1
Orbital elements
Apogee altitude
561.859 km
Perigee altitude
560.163 km
Semi-major axis
6,939.148 km
Eccentricity
0.0001222
Inclination
43.0047°
RAAN
75.3636°
Arg. of periapsis
272.9601°
True anomaly
87.12409°
Mean anomaly
87.1101°
Eccentric anomaly
87.11709°
Mean motion
3.75477 °/min
BSTAR
0.00002577
Orbital period
95.88 mins
Loading maneuver chart data...
Loading SW <> Apogee altitude chart data...
Loading historical data...
Loading historical data...
Loading historical data...
Loading historical data...
Loading historical data...
Loading historical data...
Loading historical data...

STARLINK-30099 Visibility forecast

Observer location: undefined°, undefined°

Span
Click to sort rows by Start time (UTC) header in descending order
Start Az.
Max El. time (UTC)
Max El. Az.
Max El.
End time (UTC)
End Az.
5 mins2025-05-07 22:53:16.126Z185.098° SSW2025-05-07 22:56:16.126Z134.826° SE18.408°2025-05-07 22:58:16.126Z102.831° ESE
7 mins2025-05-08 00:33:16.126Z241.731° WSW2025-05-08 00:36:16.126Z131.477° SE43.974°2025-05-08 00:40:16.126Z73.26° E
6 mins2025-05-08 02:14:16.126Z283.25° WNW2025-05-08 02:17:16.126Z18.072° NNE39.047°2025-05-08 02:20:16.126Z72.729° E
6 mins2025-05-08 03:55:16.126Z291.785° WNW2025-05-08 03:58:16.126Z62.847° ENE42.694°2025-05-08 04:01:16.126Z99.154° ESE
5 mins2025-05-08 05:36:16.126Z262.667° W2025-05-08 05:38:16.126Z215.004° SW30.175°2025-05-08 05:41:16.126Z151.243° SSE
|